Weather History for Shawbury, United Kingdom

Change the Weather History Date:

Friday, November 1, 2013

  Actual Average Record
Temperature  
Mean Temperature 49 °F -  
Max Temperature 52 °F 47 °F 60 °F (2007)
Min Temperature 46 °F 37 °F 30 °F (2008)
Degree Days  
Heating Degree Days 16    
Moisture  
Dew Point 47 °F    
Average Humidity 94    
Maximum Humidity 100    
Minimum Humidity 78    
Precipitation  
Precipitation 0.47 in - - ()
Sea Level Pressure  
Sea Level Pressure 29.72 in    
Wind  
Wind Speed 5 mph ()    
Max Wind Speed 13 mph    
Max Gust Speed -    
Visibility 5.7 miles    
Events Rain    
Averages and records for this station are not official NWS values.
T = Trace of Precipitation, MM = Missing Value Source: Averaged Metar Reports

Daily Weather History Graph

Daily Weather History Graph

Search for Another Location

Airport:

Trip Planner

Search our weather history database for the weather conditions in past years. The results will help you decide how hot, cold, wet, or windy it might be!

Date:

Astronomy

Nov. 01, 2013 Rise Set
Actual Time 7:07 AM GMT 4:39 PM GMT
Civil Twilight 6:31 AM GMT 5:16 PM GMT
Nautical Twilight 5:50 AM GMT 5:56 PM GMT
Astronomical Twilight 5:10 AM GMT 6:36 PM GMT
Moon 4:28 AM GMT (11/1) 3:36 PM GMT (11/1)
Length of Visible Light 10h 44m
Length of Day
9h 31m
Waning Crescent, 5% of the Moon is Illuminated
Nov 1
Waning Crescent
Nov 3
New
Nov 10
First Quarter
Nov 17
Full
Nov 25
Last Quarter

Hourly Weather History & Observations

Time (GMT) Temp. Windchill Dew Point Humidity Pressure Visibility Wind Dir Wind Speed Gust Speed Precip Events Conditions
12:00 AM 51 °F - 46 °F 78% 29.85 in 17 mi South 6.9 mph - -   Scattered Clouds
12:50 AM 50.0 °F - 46.4 °F 87% 29.83 in 6.2 mi SSW 4.6 mph - N/A   Scattered Clouds
1:50 AM 48.2 °F - 44.6 °F 87% 29.83 in 6.2 mi SSW 8.1 mph - N/A   Unknown
2:50 AM 50.0 °F - 46.4 °F 87% 29.83 in 6.2 mi SSW 11.5 mph - N/A Rain Light Rain Showers
3:00 AM 49 °F - 46 °F 85% 29.83 in 11 mi SSW 11.5 mph - - Rain Light Rain Showers
3:50 AM 50.0 °F - 46.4 °F 87% 29.80 in 6.2 mi SSW 6.9 mph - N/A Rain Light Rain Showers
4:50 AM 48.2 °F - 46.4 °F 93% 29.80 in 6.2 mi SSW 5.8 mph - N/A   Scattered Clouds
5:50 AM 46.4 °F 43.5 °F 44.6 °F 93% 29.80 in 6.2 mi WSW 5.8 mph - N/A   Partly Cloudy
6:50 AM 46.4 °F 42.4 °F 44.6 °F 93% 29.77 in 6.2 mi South 8.1 mph - N/A   Mostly Cloudy
7:50 AM 48.2 °F - 44.6 °F 87% 29.80 in 6.2 mi SSW 2.3 mph - N/A   Mostly Cloudy
8:50 AM 48.2 °F - 46.4 °F 93% 29.80 in 6.2 mi SE 3.5 mph - N/A Rain Light Rain
9:50 AM 50.0 °F - 48.2 °F 94% 29.77 in 5.6 mi South 6.9 mph - N/A Rain Light Rain
10:09 AM 50.0 °F - 48.2 °F 94% 29.77 in 3.7 mi South 5.8 mph - N/A Rain Light Rain
10:22 AM 50.0 °F - 48.2 °F 94% 29.74 in 6.2 mi South 5.8 mph - N/A Rain Light Rain
10:50 AM 51.8 °F - 48.2 °F 88% 29.74 in 6.2 mi South 5.8 mph - N/A Rain Light Rain
11:21 AM 50.0 °F - 50.0 °F 100% 29.74 in 6.2 mi SSE 4.6 mph - N/A Rain Light Rain
11:38 AM 51.8 °F - 50.0 °F 94% 29.71 in 2.5 mi East 3.5 mph - N/A Rain Light Rain
11:50 AM 51.8 °F - 50.0 °F 94% 29.71 in 4.3 mi East 2.3 mph - N/A Rain Light Rain
12:00 PM 51 °F - 50 °F 95% 29.73 in 4 mi East 2.3 mph - - Rain Light Rain
12:50 PM 51.8 °F - 51.8 °F 100% 29.68 in 4.3 mi SE 3.5 mph - N/A Rain Light Rain
12:56 PM 51.8 °F - 51.8 °F 100% 29.68 in - SSE 3.5 mph - N/A Rain Light Rain
1:09 PM 51.8 °F - 51.8 °F 100% 29.68 in 1.4 mi West 4.6 mph - N/A Rain Heavy Rain
1:29 PM 50.0 °F - 50.0 °F 100% 29.68 in 2.8 mi NNW 12.7 mph - N/A Rain Heavy Rain
1:50 PM 48.2 °F - 46.4 °F 93% 29.68 in 2.8 mi NNW 11.5 mph - N/A Rain Heavy Rain
2:50 PM 48.2 °F - 46.4 °F 93% 29.65 in 6.2 mi East 2.3 mph - N/A Rain Light Rain
3:00 PM 48 °F - 46 °F 91% 29.68 in 12 mi East 2.3 mph - - Rain Light Rain
3:50 PM 48.2 °F - 46.4 °F 93% 29.65 in 6.2 mi NE 2.3 mph - N/A Rain Rain
4:50 PM 46.4 °F - 46.4 °F 100% 29.65 in 6.2 mi ESE 1.2 mph - N/A Rain Light Rain
5:50 PM 46.4 °F - 46.4 °F 100% 29.62 in 6.2 mi Calm Calm - N/A Rain Light Rain Showers
6:00 PM 47 °F - 47 °F 98% 29.65 in 10 mi Calm Calm - - Rain Light Rain Showers
6:50 PM 46.4 °F - 46.4 °F 100% 29.62 in 4.3 mi Calm Calm - N/A Rain Light Rain
7:50 PM 46.4 °F 45.2 °F 46.4 °F 100% 29.62 in 3.1 mi ESE 3.5 mph - N/A Rain Rain
8:50 PM 46.4 °F 44.3 °F 46.4 °F 100% 29.62 in 3.1 mi West 4.6 mph - N/A   Mostly Cloudy
9:00 PM 46 °F - 46 °F 98% 29.65 in 3 mi West 4.6 mph - - Rain Rain
9:50 PM 46.4 °F - 46.4 °F 100% 29.62 in - Calm Calm - N/A Rain Rain
10:50 PM 46.4 °F 45.2 °F 44.6 °F 93% 29.59 in 1.4 mi NNW 3.5 mph - N/A Rain Light Rain
11:50 PM 46.4 °F 45.2 °F 46.4 °F 100% 29.59 in - WNW 3.5 mph - N/A Rain Light Rain